Regional Weather Roundup
Issued by NWS Nashville, TN

Home | Current Version | Previous Version | Text Only | Print | Product List | Glossary On
Versions: 1 2 3 4 5 6 7 8 9 10 11 12 13 14 15 16 17 18 19 20 21 22 23 24 25 26 27
000
ASUS44 KOHX 010110
RWROHX
MIDDLE TENNESSEE HOURLY WEATHER ROUNDUP
NATIONAL WEATHER SERVICE NASHVILLE TN
800 PM CDT WED AUG 31 2016

NOTE: "FAIR" INDICATES FEW OR NO CLOUDS BELOW 12,000 FEET WITH
NO SIGNIFICANT WEATHER AND/OR OBSTRUCTIONS TO VISIBILITY.

* THESE REPORTS ARE NOT UNDER NWS QUALITY CONTROL AND MAY NOT
  REPORT WEATHER SUCH AS PRECIPITATION AND FOG.


TNZ005>011-023>034-057-059-062>066-078-080-010200
...NORTHERN MIDDLE TENNESSEE...

CITY           SKY/WX    TMP DP  RH WIND       PRES   REMARKS
CLARKSVILLE    CLEAR     79  71  76 N7        29.95R
CROSSVILLE     PTCLDY    71  70  96 W3        30.01R
GALLATIN       PTCLDY    82  73  74 N6        29.97R
DICKSON        CLEAR     78  73  84 CALM      29.96R
LEBANON        CLEAR     82  72  72 N5        29.93
NASHVILLE      PTCLDY    83  71  67 N6        29.94R
WEST NASHVILLE CLEAR     81  70  69 CALM      29.94R
PORTLAND       CLEAR     79  73  83 CALM      29.95S
SMYRNA         CLEAR     82  72  69 NE7       29.94R
SPARTA         PTCLDY    81  73  78 NE6       29.95R
SPRINGFIELD    CLOUDY    79  75  89 CALM      29.94S
$$
TNZ056-058-060-061-075>077-079-093>097-010200
...SOUTHERN MIDDLE TENNESSEE...

CITY           SKY/WX    TMP DP  RH WIND       PRES   REMARKS
COLUMBIA       CLEAR     81  81 100 CALM      29.93R HX  91
FAYETTEVILLE   PTCLDY    79  70  73 N6        29.94R
LEWISBURG      CLEAR     74  69  84 CALM      29.94R
MCMINNVILLE    CLEAR     81  73  78 N5        29.95R
SHELBYVILLE    PTCLDY    79  75  89 CALM      29.95R
TULLAHOMA      MOCLDY    79  70  73 NW5       29.97R
WINCHESTER     CLEAR     79  70  73 CALM      29.95R
$$


...KEY TO REMARKS...
VSB - VISIBILITY IN MILES
WCI - WIND CHILL INDEX
HX  - HEAT INDEX





USA.gov is the U.S. government's official web portal to all federal, state and local government web resources and services.